[[{"header":{"parameterUnit":"m.s-1","parameterCategory":1,"la1":30.2991,"la2":30.254,"lo1":-89.0895,"lo2":-89.0444,"dx":0.0017,"dy":0.0017,"nx":28,"ny":28,"refTime":"2022-12-07T03:00:00:Z","depth":0,"parameterNumber":2,"parameterNumberName":"U-component_of_WINDS"},"data":[0,0,0,0,0,0,0,0,0,0,0,0,0,0,0,0,0,0,0,0,0,0,0,0,0,0,0,0,0,0,0,0,0,0,0,0,0,0,0,0,0,0,0,0,0,0,0,0,0,0,0,0,0,0,0,0,0,0,-0.6651,-0.6651,0,-0.6623,-0.6622,-0.6622,-0.6558,-0.6556,-0.6555,-0.6554,-0.6527,-0.6527,-0.6528,0,0,0,0,0,0,0,0,0,0,0,0,0,-0.6651,-0.6652,-0.6651,-0.6651,-0.665,-0.6623,-0.6622,-0.6622,-0.6558,-0.6556,-0.6555,-0.6553,-0.6527,-0.6527,-0.6528,0,0,0,0,0,0,0,0,0,0,0,0,0,-0.664,-0.6652,-0.6651,-0.6615,-0.6611,-0.6623,-0.6622,-0.6622,-0.6558,-0.6556,-0.6554,-0.6552,-0.6526,-0.6527,-0.6528,-0.6573,0,0,-0.653,-0.6531,0,0,0,0,0,0,0,0,-0.6641,-0.664,-0.6621,-0.6617,-0.6614,-0.6592,-0.6613,-0.6606,-0.6559,-0.6579,-0.6554,-0.6551,-0.655,-0.6549,-0.6548,-0.6572,-0.657,-0.653,-0.6531,-0.6531,-0.6531,0,0,0,0,0,0,0,-0.6642,-0.6641,-0.664,-0.662,-0.6616,-0.6601,-0.6597,-0.6611,-0.6576,-0.6577,-0.6572,-0.6569,-0.6548,-0.6547,-0.6547,-0.657,-0.653,-0.6531,-0.6532,-0.6532,-0.6629,-0.6631,0,0,0,0,0,0,-0.6647,-0.6642,-0.6641,-0.6639,-0.6622,-0.6602,-0.6598,-0.6601,-0.6576,-0.657,-0.6571,-0.6566,-0.6547,-0.6546,-0.6546,-0.6596,-0.6531,-0.6532,-0.6532,-0.6627,-0.663,-0.6632,0,0,0,0,0,0,-0.6648,-0.6648,-0.6642,-0.6639,-0.6637,-0.6604,-0.6608,-0.6601,-0.6601,-0.6571,-0.6565,-0.6577,-0.6545,-0.6545,-0.6566,-0.6595,-0.6532,-0.6533,-0.6625,-0.6628,-0.6631,-0.6699,0,0,0,0,0,0,-0.6648,-0.6648,-0.6665,-0.664,-0.6638,-0.6663,-0.661,-0.6602,-0.6602,-0.6596,-0.6575,-0.657,-0.6544,-0.6566,-0.6567,-0.6595,-0.6534,-0.6622,-0.6626,-0.663,-0.6694,-0.6704,-0.6713,0,0,0,0,0,-0.6648,-0.6685,-0.6666,-0.6666,-0.6657,-0.6665,-0.6663,-0.6632,-0.6605,-0.6621,-0.6602,-0.6571,-0.6591,-0.6568,-0.657,-0.6598,-0.662,-0.6625,-0.663,-0.669,-0.6702,-0.6712,0,0,0,0,0,0,-0.6715,-0.6681,-0.6659,-0.669,-0.668,-0.6654,-0.6673,-0.6646,-0.6645,-0.6639,-0.6601,-0.6597,-0.6624,-0.6613,-0.6588,-0.664,-0.6601,-0.6606,-0.6646,-0.6657,-0.6667,-0.6669,-0.6534,0,0,0,0,0,-0.6733,-0.6741,-0.6712,-0.6741,-0.6738,-0.6707,-0.6709,-0.6685,-0.6674,-0.667,-0.6653,-0.6644,-0.6649,-0.6652,-0.6655,-0.6692,-0.6687,-0.6712,-0.6721,-0.6729,-0.6734,-0.6753,-0.6764,-0.6648,-0.6648,-0.6647,0,0,-0.6771,-0.6753,-0.6761,-0.6754,-0.6744,-0.6754,-0.6704,-0.6716,-0.6723,-0.6672,-0.6692,-0.6679,-0.6666,-0.6696,-0.6709,-0.6688,-0.6765,-0.6735,-0.6742,-0.6742,-0.6759,-0.677,-0.678,-0.6651,-0.665,-0.665,0,0,-0.6844,-0.6832,-0.6855,-0.6846,-0.6831,-0.681,-0.6816,-0.6794,-0.6783,-0.6802,-0.6764,-0.6772,-0.678,-0.6773,-0.6771,-0.6842,-0.6813,-0.6844,-0.6892,-0.6911,-0.692,-0.6928,-0.6954,-0.6963,-0.6849,-0.6849,-0.6849,0,-0.6893,-0.6906,-0.6871,-0.6886,-0.6884,-0.6838,-0.6861,-0.6854,-0.6842,-0.6842,-0.6819,-0.6829,-0.6817,-0.6845,-0.6862,-0.6861,-0.6867,-0.6846,-0.6922,-0.6929,-0.6936,-0.696,-0.697,-0.6853,-0.6852,-0.6852,-0.6852,0,-0.6966,-0.6976,-0.6996,-0.6985,-0.6985,-0.7005,-0.6973,-0.6978,-0.6955,-0.6937,-0.6957,-0.6941,-0.694,-0.6944,-0.6922,-0.6969,-0.6957,-0.6929,-0.6888,-0.6952,-0.6974,-0.6982,-0.6858,-0.6857,-0.6856,-0.6855,0,0,-0.7081,-0.705,-0.7058,-0.7052,-0.7032,-0.7039,-0.7057,-0.7055,-0.706,-0.7053,-0.7067,-0.7075,-0.7049,-0.7046,-0.7022,-0.7039,-0.7096,-0.7009,-0.7008,-0.7025,-0.7147,-0.7169,-0.718,-0.7077,-0.7079,-0.708,-0.7148,0,-0.715,-0.7177,-0.7146,-0.718,-0.7189,-0.7145,-0.716,-0.715,-0.7134,-0.7139,-0.7121,-0.7127,-0.7092,-0.709,-0.7105,-0.7086,-0.712,-0.7081,-0.709,-0.7091,-0.7094,-0.7191,-0.7213,-0.7278,-0.7157,-0.7158,-0.7159,0,-0.7234,-0.723,-0.7265,-0.7243,-0.7245,-0.7259,-0.7255,-0.7261,-0.7249,-0.7236,-0.7233,-0.7204,-0.722,-0.7181,-0.7203,-0.7177,-0.7179,-0.7171,-0.7172,-0.7172,-0.7129,-0.7193,-0.7298,-0.7308,-0.7172,-0.7171,-0.717,0,-0.7314,-0.7318,-0.7339,-0.7335,-0.731,-0.7321,-0.7312,-0.7298,-0.7298,-0.7295,-0.7295,-0.7294,-0.7294,-0.7294,-0.7266,-0.724,-0.7291,-0.725,-0.7281,-0.7282,-0.7294,-0.7293,-0.7401,-0.7295,-0.7295,-0.7295,-0.7295,0,-0.7394,-0.7417,-0.7374,-0.7387,-0.7412,-0.7377,-0.7402,-0.7388,-0.7376,-0.7386,-0.7348,-0.7359,-0.7321,-0.7328,-0.7306,-0.7328,-0.7328,-0.7318,-0.7312,-0.7321,-0.7323,-0.7322,-0.7317,-0.7298,-0.7297,-0.7297,-0.7296,0,-0.7487,-0.746,-0.748,-0.7455,-0.7449,-0.7468,-0.7447,-0.7458,-0.7439,-0.7452,-0.7453,-0.7424,-0.743,-0.7402,-0.7403,-0.7388,-0.7421,-0.7407,-0.7425,-0.742,-0.7453,-0.7451,-0.7564,-0.7577,-0.7464,-0.7465,-0.7466,0,-0.754,-0.7557,-0.7533,-0.7537,-0.7529,-0.7535,-0.7536,-0.7502,-0.7504,-0.7492,-0.7505,-0.7507,-0.7508,-0.7519,-0.7498,-0.7499,-0.7485,-0.7525,-0.7485,-0.7493,-0.7485,-0.7485,-0.7486,-0.7533,-0.7534,-0.7535,-0.7536,0,-0.7637,-0.7622,-0.7624,-0.7621,-0.7623,-0.7619,-0.7613,-0.7618,-0.7582,-0.7586,-0.7591,-0.7591,-0.7592,-0.7595,-0.7592,-0.7582,-0.7554,-0.7549,-0.7556,-0.7566,-0.7575,-0.7571,-0.7447,-0.7547,-0.7546,-0.7545,-0.7544,-0.7544,-0.7711,-0.7724,-0.7709,-0.7713,-0.7704,-0.7699,-0.7709,-0.7691,-0.7694,-0.7692,-0.7672,-0.7681,-0.7669,-0.7661,-0.7654,-0.7661,-0.7642,-0.7653,-0.7656,-0.7659,-0.7664,-0.7574,-0.766,-0.766,-0.766,-0.766,-0.7659,0,-0.7806,-0.7794,-0.7798,-0.779,-0.7793,-0.7765,-0.7757,-0.7761,-0.7769,-0.776,-0.7761,-0.7767,-0.777,-0.7749,-0.7749,-0.7759,-0.7746,-0.776,-0.7759,-0.7757,-0.7681,-0.7675,-0.7771,-0.7771,-0.7771,-0.7771,-0.7771,-0.7771,-0.7855,-0.7875,-0.7859,-0.7875,-0.7863,-0.7871,-0.7868,-0.7864,-0.7856,-0.7865,-0.7867,-0.7853,-0.7839,-0.7838,-0.784,-0.7834,-0.7836,-0.7855,-0.7844,-0.7773,-0.7763,-0.7752,-0.7746,-0.7855,-0.7855,-0.7919,-0.792,-0.7921]},{"header":{"parameterUnit":"m.s-1","parameterCategory":1,"la1":30.2991,"la2":30.254,"lo1":-89.0895,"lo2":-89.0444,"dx":0.0017,"dy":0.0017,"nx":28,"ny":28,"refTime":"2022-12-07T03:00:00:Z","depth":0,"parameterNumber":3,"parameterNumberName":"V-component_of_WINDS"},"data":[0,0,0,0,0,0,0,0,0,0,0,0,0,0,0,0,0,0,0,0,0,0,0,0,0,0,0,0,0,0,0,0,0,0,0,0,0,0,0,0,0,0,0,0,0,0,0,0,0,0,0,0,0,0,0,0,0,0,-0.007,-0.007,0,-0.0094,-0.0094,-0.0095,-0.0073,-0.0072,-0.0071,-0.0071,-0.0096,-0.0097,-0.0099,0,0,0,0,0,0,0,0,0,0,0,0,0,-0.0005,-0.0006,-0.007,-0.007,-0.007,-0.0094,-0.0094,-0.0095,-0.0073,-0.0072,-0.0071,-0.007,-0.0095,-0.0097,-0.0099,0,0,0,0,0,0,0,0,0,0,0,0,0,-0.0032,-0.0007,-0.007,-0.0063,-0.0062,-0.0094,-0.0094,-0.0095,-0.0074,-0.0072,-0.0071,-0.007,-0.0095,-0.0097,-0.0099,-0.0139,0,0,-0.0106,-0.0107,0,0,0,0,0,0,0,0,-0.003,-0.0034,-0.0063,-0.0063,-0.0063,-0.0079,-0.0081,-0.011,-0.0074,-0.0069,-0.0071,-0.0069,-0.0091,-0.0094,-0.0101,-0.0141,-0.0142,-0.0106,-0.0108,-0.0109,-0.0109,0,0,0,0,0,0,0,-0.0028,-0.0033,-0.0079,-0.0064,-0.0063,-0.0058,-0.006,-0.0086,-0.0087,-0.007,-0.0068,-0.0071,-0.0091,-0.0099,-0.0102,-0.0142,-0.0106,-0.0108,-0.0109,-0.011,-0.0216,-0.0217,0,0,0,0,0,0,-0.0027,-0.0031,-0.0079,-0.008,-0.0043,-0.006,-0.0063,-0.0075,-0.0087,-0.0088,-0.0072,-0.007,-0.0096,-0.0099,-0.0103,-0.0151,-0.0108,-0.0111,-0.0112,-0.0214,-0.0216,-0.0217,0,0,0,0,0,0,-0.0026,-0.0032,-0.0078,-0.0055,-0.0061,-0.0063,-0.0077,-0.0077,-0.0085,-0.0089,-0.0089,-0.0081,-0.0095,-0.0099,-0.013,-0.0151,-0.0112,-0.0114,-0.0212,-0.0215,-0.0217,-0.0247,0,0,0,0,0,0,-0.0024,-0.0031,-0.0047,-0.0056,-0.0062,-0.0105,-0.0078,-0.0078,-0.0089,-0.0086,-0.0097,-0.0097,-0.0094,-0.0127,-0.0133,-0.0154,-0.0115,-0.0211,-0.0213,-0.0216,-0.0244,-0.025,-0.0255,0,0,0,0,0,-0.0022,-0.0054,-0.0047,-0.0053,-0.0081,-0.0107,-0.011,-0.0106,-0.009,-0.0106,-0.0109,-0.0097,-0.0148,-0.0131,-0.0137,-0.0159,-0.0209,-0.0213,-0.0216,-0.0242,-0.0249,-0.0255,0,0,0,0,0,0,-0.0048,-0.0055,-0.0048,-0.0084,-0.0095,-0.0103,-0.0122,-0.0113,-0.0129,-0.0126,-0.012,-0.0122,-0.0155,-0.016,-0.014,-0.0198,-0.0176,-0.0181,-0.0194,-0.0201,-0.0206,-0.0205,-0.0117,0,0,0,0,0,-0.0057,-0.0077,-0.0083,-0.0114,-0.012,-0.012,-0.0131,-0.0127,-0.0138,-0.0142,-0.0147,-0.0158,-0.0176,-0.0189,-0.0206,-0.0245,-0.0247,-0.0263,-0.0268,-0.0273,-0.0277,-0.0298,-0.0305,-0.0228,-0.0228,-0.0228,0,0,-0.0078,-0.0085,-0.0098,-0.012,-0.0128,-0.0148,-0.0124,-0.0147,-0.0162,-0.0145,-0.0175,-0.0179,-0.0191,-0.0226,-0.0242,-0.0231,-0.0298,-0.0277,-0.028,-0.0282,-0.0302,-0.0309,-0.0316,-0.023,-0.023,-0.023,0,0,-0.0127,-0.0134,-0.0161,-0.0169,-0.0181,-0.0181,-0.0187,-0.0196,-0.0198,-0.0228,-0.0216,-0.0234,-0.0265,-0.0274,-0.0283,-0.0334,-0.0325,-0.034,-0.0369,-0.0389,-0.0395,-0.0401,-0.0419,-0.0426,-0.0344,-0.0344,-0.0344,0,-0.0151,-0.0182,-0.0176,-0.02,-0.021,-0.0195,-0.0223,-0.0231,-0.0248,-0.0255,-0.0243,-0.0282,-0.0289,-0.0326,-0.0339,-0.0346,-0.0353,-0.0339,-0.0395,-0.04,-0.0405,-0.0423,-0.043,-0.0346,-0.0346,-0.0346,-0.0346,0,-0.0211,-0.0233,-0.0253,-0.027,-0.0282,-0.0308,-0.0306,-0.0319,-0.0313,-0.0315,-0.0345,-0.0353,-0.0371,-0.0379,-0.0374,-0.0416,-0.0409,-0.0396,-0.0374,-0.0414,-0.0431,-0.0438,-0.0349,-0.0348,-0.0348,-0.0347,0,0,-0.0277,-0.029,-0.0298,-0.0305,-0.0317,-0.0333,-0.0358,-0.0376,-0.0388,-0.04,-0.0421,-0.0448,-0.0435,-0.0445,-0.0441,-0.0459,-0.05,-0.0444,-0.0444,-0.0454,-0.0546,-0.0557,-0.0565,-0.0493,-0.0494,-0.0495,-0.0546,0,-0.0327,-0.037,-0.0365,-0.0406,-0.0426,-0.0412,-0.0434,-0.0443,-0.0445,-0.0462,-0.0464,-0.0483,-0.0465,-0.0471,-0.0488,-0.0491,-0.0518,-0.0487,-0.0513,-0.0513,-0.0511,-0.0573,-0.0585,-0.0632,-0.0552,-0.0553,-0.0554,0,-0.039,-0.0404,-0.0448,-0.0456,-0.0464,-0.0484,-0.05,-0.0516,-0.0527,-0.0527,-0.0538,-0.053,-0.0555,-0.0532,-0.0566,-0.0545,-0.0555,-0.0558,-0.056,-0.0562,-0.0537,-0.0579,-0.0647,-0.0654,-0.0564,-0.0563,-0.0563,0,-0.0435,-0.0465,-0.0494,-0.0501,-0.0512,-0.0526,-0.0531,-0.054,-0.0551,-0.0565,-0.0572,-0.0589,-0.0598,-0.0611,-0.0609,-0.0592,-0.0644,-0.062,-0.0645,-0.0645,-0.0657,-0.0657,-0.0729,-0.0662,-0.0662,-0.0662,-0.0662,0,-0.0491,-0.0518,-0.0515,-0.0533,-0.0563,-0.0557,-0.0587,-0.059,-0.0598,-0.0617,-0.0606,-0.0624,-0.0618,-0.0636,-0.0634,-0.0663,-0.0667,-0.0668,-0.0667,-0.067,-0.067,-0.0677,-0.0673,-0.0664,-0.0663,-0.0663,-0.0663,0,-0.0546,-0.0545,-0.0576,-0.0584,-0.0586,-0.0608,-0.0614,-0.0632,-0.0632,-0.0656,-0.0661,-0.0662,-0.0682,-0.0681,-0.0703,-0.0702,-0.0738,-0.0733,-0.0735,-0.0734,-0.0759,-0.0757,-0.0838,-0.0849,-0.0775,-0.0776,-0.0776,0,-0.0582,-0.0603,-0.0612,-0.0624,-0.063,-0.0649,-0.066,-0.0655,-0.0668,-0.0681,-0.0697,-0.0716,-0.0731,-0.0764,-0.0767,-0.0784,-0.078,-0.0807,-0.0782,-0.0784,-0.0781,-0.078,-0.0782,-0.0812,-0.0813,-0.0814,-0.0814,0,-0.0647,-0.0645,-0.0662,-0.0678,-0.0692,-0.0705,-0.0716,-0.0726,-0.0722,-0.0737,-0.0757,-0.0769,-0.0792,-0.0811,-0.0827,-0.0833,-0.0823,-0.0822,-0.0829,-0.0832,-0.0832,-0.0833,-0.0749,-0.082,-0.082,-0.0819,-0.0819,-0.0819,-0.0694,-0.0712,-0.0721,-0.074,-0.0748,-0.0759,-0.0776,-0.0778,-0.0795,-0.0814,-0.0809,-0.0833,-0.0842,-0.0863,-0.087,-0.0888,-0.0878,-0.0888,-0.0891,-0.0893,-0.0897,-0.0828,-0.0891,-0.0891,-0.0891,-0.0891,-0.0891,0,-0.0759,-0.0764,-0.0781,-0.0798,-0.0813,-0.0802,-0.0814,-0.0827,-0.0848,-0.0857,-0.0873,-0.0896,-0.0915,-0.0919,-0.0936,-0.095,-0.0946,-0.0955,-0.0954,-0.0956,-0.0904,-0.0897,-0.0958,-0.0958,-0.0958,-0.0958,-0.0958,-0.0958,-0.0794,-0.0824,-0.0823,-0.0856,-0.0861,-0.0884,-0.0892,-0.0902,-0.091,-0.0937,-0.0952,-0.0954,-0.0962,-0.098,-0.0997,-0.0997,-0.1005,-0.1015,-0.1014,-0.0966,-0.0959,-0.0953,-0.0946,-0.1017,-0.1017,-0.1065,-0.1065,-0.1066]}]]